Location: Stara Lesna
(49.1528°N, 20.2911°E)
Time: 21:43:09
(UTC+02:00)

Cosmos 220 Rocket - Pass Details

Date: 21 September 2019
Orbit: 576 x 616 km, 74.0° (Epoch: 16 October)

Event Time Altitude Azimuth Distance (km) Brightness Sun altitude
Exits shadow 04:28:36 41° 274° (W) 859 4.3 -18.9°
Maximum altitude 04:29:12 44° 299° (WNW) 819 4.4 -18.8°
Drops below altitude 10° 04:33:18 10° 12° (NNE) 1,915 7.0 -18.2°
Sets 04:35:36 0° 19° (NNE) 2,814 8.1 -17.9°
